EHI
5 3 1 4 9 13 16 18 20 20 19 17 13 8 4 4 5 4 4 4 3 3 3 4 5 6 7 8 8 8 6 3 1 0 0 0 0 1 1 1 0 1 2
7 5 4 6 10 14 15 17 20 20 18 17 13 7 4 4 4 4 4 4 3 3 3 4 5 6 8 9 9 8 6 3 0 0 0 0 1 2 1 0 0 1 1
10 9 7 8 11 14 14 16 19 19 17 16 12 7 5 5 4 4 5 5 4 3 4 5 6 6 7 8 8 8 6 3 1 1 2 2 2 2 1 0 0 1 2
13 11 9 8 10 12 13 14 17 17 15 12 10 8 7 6 6 6 6 6 5 4 6 7 7 7 6 7 7 7 6 4 1 2 5 5 4 3 2 1 1 2 3
13 11 8 7 8 8 9 11 13 14 13 11 10 10 9 8 7 7 8 7 6 6 6 7 8 9 8 7 8 8 7 6 5 4 6 8 8 5 4 4 3 3 3
13 10 7 6 6 5 5 6 8 10 11 11 11 10 9 9 9 8 8 6 6 6 6 7 9 11 11 10 10 10 10 9 9 8 8 9 9 8 7 7 6 4 2
12 10 7 5 5 4 4 4 6 8 10 11 12 11 10 9 9 8 7 6 5 6 6 8 11 13 13 12 12 12 12 12 12 12 12 11 9 9 9 9 7 4 2
11 9 6 4 4 4 3 4 7 9 11 12 13 12 10 8 8 7 6 7 7 6 7 10 13 14 14 14 14 14 14 13 13 13 14 14 12 11 11 10 9 6 3
10 8 5 3 2 2 3 5 9 12 14 13 12 11 10 9 8 7 7 8 9 8 9 11 12 13 14 13 14 15 14 13 12 13 14 14 13 12 12 11 10 8 7
10 9 7 4 4 2 2 4 7 10 12 11 10 9 11 12 10 9 8 9 10 11 11 12 11 11 12 12 13 13 13 13 13 13 13 13 13 12 12 11 10 9 9
11 11 10 8 7 6 4 3 4 5 7 8 9 11 13 13 12 10 8 8 10 11 12 11 9 9 10 11 11 11 12 13 13 13 13 13 13 12 11 10 9 9 9
15 15 14 12 11 10 7 5 4 4 5 8 11 13 15 15 12 9 7 5 7 8 8 8 7 7 8 9 10 10 10 11 12 13 13 12 12 11 10 10 9 7 7
20 20 19 18 15 12 9 7 6 7 7 9 12 15 16 15 12 10 6 4 4 5 5 6 6 6 6 6 7 8 9 9 10 12 12 11 11 10 9 9 8 6 5
24 23 23 22 18 12 9 8 7 9 11 13 16 17 17 15 12 9 7 5 3 3 5 7 7 6 6 5 6 6 6 7 9 10 10 9 9 8 8 7 7 6 6
21 21 22 22 18 13 10 9 8 9 13 16 19 19 17 14 10 7 6 5 3 3 6 8 8 7 7 5 4 4 4 6 8 8 7 7 6 5 5 4 4 5 6
17 18 20 20 17 14 13 12 11 12 14 17 19 19 16 11 7 5 4 4 4 5 6 7 8 8 7 4 3 3 3 4 5 5 4 4 4 3 2 2 2 2 4
17 17 18 18 17 15 15 15 15 16 17 18 18 15 12 8 6 4 3 5 6 7 8 7 7 7 6 3 1 1 2 2 3 4 3 4 4 3 2 1 1 1 2
19 18 17 17 16 14 14 14 16 18 19 18 15 10 8 7 7 6 5 7 8 8 8 7 6 5 4 2 0 0 0 1 2 2 2 3 3 2 1 1 2 2 2
19 19 17 16 15 13 13 14 15 16 16 13 10 8 7 7 7 8 9 9 8 7 6 5 4 3 2 0 0 0 0 0 1 1 1 1 1 1 0 0 1 1 2
17 15 14 15 15 12 12 13 13 12 11 8 7 7 7 8 8 10 10 8 7 5 3 2 1 1 0 0 0 0 0 0 0 0 0 0 0 0 0 0 0 0 1
13 12 12 15 16 13 11 11 11 10 9 8 8 9 9 8 8 8 7 6 4 2 1 0 0 0 0 0 0 0 0 0 0 0 0 0 0 0 0 0 0 1 2
9 10 13 16 17 14 12 11 11 11 10 10 10 10 8 6 5 5 5 4 3 2 1 0 0 0 0 0 0 0 0 0 0 0 0 0 0 0 0 0 0 1 2
8 10 13 17 18 16 12 11 11 10 10 10 10 8 5 3 4 5 6 5 4 3 1 0 0 0 0 0 0 0 0 0 0 0 0 0 0 0 0 0 0 1 1
11 12 15 18 19 16 12 10 9 9 9 9 8 5 3 2 3 5 6 5 4 3 2 0 0 0 0 0 0 0 0 0 0 0 0 0 0 0 0 0 0 1 2
14 17 20 21 20 16 12 10 10 10 10 9 7 4 2 2 2 3 4 3 2 2 1 0 0 0 0 0 0 0 0 0 0 0 0 0 0 0 0 0 0 1 1
17 19 22 23 20 15 11 10 11 12 13 10 6 4 3 2 2 2 1 1 1 1 0 0 0 0 0 0 0 0 0 0 0 0 0 0 0 0 0 0 0 0 0
Wind_Speed
4 5 5 5 5 4 4 4 4 4 2 2 2 2 2 2 2 2 3 2 2 2 2 2 1 1 1 1 1 1 0 0 1 1 0 0 1 1 0 0 1 0 1
5 6 6 5 5 4 4 4 4 4 3 2 2 1 1 1 2 2 2 2 2 2 1 1 1 1 1 1 1 1 2 1 1 2 2 1 1 1 0 0 0 1 0
5 7 7 5 5 5 4 4 4 3 3 2 2 2 1 1 1 1 2 2 2 2 2 2 2 2 2 1 1 2 2 2 1 2 3 2 1 1 1 1 1 1 1
6 6 6 6 6 5 5 4 4 3 3 3 2 2 1 1 1 1 1 1 1 1 2 2 2 2 2 2 2 1 3 2 2 1 1 2 2 2 1 0 1 0 1
6 6 6 7 6 6 5 5 4 4 3 3 3 2 1 1 1 1 2 1 1 1 2 2 2 2 2 2 3 3 3 2 3 2 2 1 1 2 2 1 1 1 0
6 6 6 6 6 6 6 5 5 4 3 3 3 2 1 1 1 1 1 0 1 1 2 2 2 2 2 2 2 3 2 2 3 3 2 2 2 2 2 2 2 1 1
6 6 6 7 6 6 6 6 5 5 4 4 3 3 2 2 1 0 0 1 1 1 2 2 2 2 2 2 2 2 3 2 2 2 2 2 2 2 2 2 2 2 1
7 6 7 7 6 7 7 6 6 5 5 4 3 2 2 1 1 0 1 1 1 2 2 2 2 2 2 2 2 2 2 2 2 2 2 3 2 2 2 2 3 3 2
7 6 6 7 7 7 8 7 7 6 5 4 4 3 2 1 0 0 1 1 1 1 2 2 2 2 2 2 3 2 3 3 3 2 2 2 2 2 2 2 3 3 3
7 7 6 6 6 7 7 8 7 6 5 5 4 3 3 2 1 1 1 1 1 1 1 1 2 2 2 2 3 2 2 3 2 2 3 3 2 2 2 2 2 3 4
7 7 6 6 6 6 7 8 8 7 6 5 4 3 3 3 2 1 1 0 1 1 1 1 2 2 2 2 2 3 3 3 3 3 2 2 3 2 2 2 2 2 3
6 7 7 7 7 6 6 7 7 7 6 5 4 4 3 2 2 2 1 1 1 1 1 1 1 2 2 2 3 3 3 3 3 3 3 3 2 2 2 2 2 2 2
6 6 7 7 7 6 6 6 6 6 6 5 5 4 3 2 2 1 1 1 1 1 1 1 1 2 2 3 3 3 3 3 4 4 3 3 2 2 2 2 2 2 2
6 6 6 6 7 6 6 6 6 6 6 5 5 4 3 2 2 1 1 1 1 0 1 1 1 2 2 3 3 3 3 3 3 3 3 3 3 2 2 2 2 2 2
7 7 6 7 7 7 6 6 6 6 6 5 5 4 3 3 2 1 1 1 1 1 1 1 1 2 1 3 4 4 3 3 3 3 3 3 3 4 4 4 2 2 3
6 7 7 7 7 7 7 7 6 6 6 6 5 4 4 3 2 1 1 1 1 1 1 1 1 2 3 6 7 7 4 3 3 3 3 2 1 2 2 3 4 4 4
5 6 6 7 7 7 7 7 6 6 6 6 5 5 4 3 2 2 1 1 1 1 1 1 1 2 4 6 6 7 5 3 3 3 3 3 3 3 3 2 3 3 4
4 5 5 6 7 7 7 6 7 6 6 5 5 4 4 3 3 2 2 1 1 1 1 1 1 1 4 5 6 7 4 2 3 3 3 3 3 4 5 4 3 3 2
3 3 4 5 6 7 7 7 7 6 6 5 5 5 4 4 3 3 2 1 1 1 1 1 1 1 3 5 6 8 3 2 2 3 4 4 4 7 7 4 3 3 3
3 3 4 5 6 6 7 7 7 6 5 5 4 4 4 4 3 3 2 2 1 1 1 1 1 1 2 4 6 8 4 2 2 2 2 5 5 6 6 4 4 4 4
4 4 5 5 5 6 6 6 6 5 5 5 5 4 4 4 4 3 2 2 1 1 0 1 1 1 2 3 4 6 5 4 3 3 2 3 5 4 5 5 4 5 5
5 5 5 5 5 5 6 6 5 5 5 5 5 5 4 3 4 4 3 2 2 2 2 1 1 1 1 2 2 2 4 7 4 4 3 3 3 3 4 4 4 5 5
5 5 5 5 5 5 5 5 5 5 6 5 5 5 4 3 3 3 3 3 2 1 1 1 1 0 1 2 2 1 2 4 3 3 3 2 2 3 2 1 3 4 3
4 5 5 5 5 5 5 5 5 5 6 6 5 4 4 4 4 2 2 1 1 1 1 1 1 1 0 1 1 1 1 2 2 2 1 3 3 2 2 2 2 2 3
3 4 4 5 5 5 5 5 6 6 6 5 5 5 4 3 3 3 1 0 1 1 2 2 2 2 2 3 4 4 4 4 4 5 3 2 2 2 2 2 3 3 2
3 4 4 5 5 5 5 5 6 6 5 5 5 4 3 3 3 3 3 3 1 2 1 2 3 2 1 1 2 3 4 5 6 5 3 3 3 3 3 3 2 2 3
Wind_Direction
160 152 152 146 140 135 132 128 123 119 128 119 116 114 96 75 64 62 54 44 34 37 25 24 45 345 27 357 344 322 177 259 320 278 251 191 172 107 140 258 318 173 164
156 155 156 155 153 145 143 142 135 126 132 120 119 103 80 86 78 61 63 35 34 20 30 26 339 13 3 21 354 330 310 327 307 299 289 241 180 139 105 161 124 345 55
171 161 163 163 161 156 153 141 137 139 133 134 137 122 136 147 102 83 75 46 24 14 7 11 351 347 326 8 331 317 300 299 295 319 305 300 315 341 139 39 51 21 336
167 164 163 165 169 162 152 145 142 142 140 146 133 136 138 103 69 57 60 51 33 17 10 6 356 340 334 344 305 331 299 295 297 288 308 318 330 299 288 212 93 40 293
164 163 164 167 170 162 156 150 147 148 149 152 151 167 151 113 91 78 80 36 62 35 15 5 353 340 333 345 335 326 315 314 314 314 311 301 260 260 263 278 266 223 250
162 160 159 162 168 166 161 153 153 157 161 161 153 164 145 118 84 47 36 4 72 51 33 2 356 334 342 343 321 314 314 322 326 315 309 293 286 282 276 267 262 277 305
165 163 160 162 166 168 164 162 163 168 170 166 167 168 169 170 167 244 66 332 19 44 30 3 352 343 342 335 325 317 325 320 311 299 302 305 298 301 296 277 277 272 259
167 165 163 162 164 169 171 169 170 172 170 164 162 164 186 203 163 53 336 1 4 23 21 4 353 347 339 337 332 317 319 327 307 309 314 298 303 302 289 281 281 272 255
165 162 159 159 164 167 170 172 172 171 168 164 164 166 176 196 130 152 255 15 17 17 21 8 357 351 351 343 323 332 326 321 301 302 297 292 306 298 300 284 285 287 277
166 163 160 158 162 164 163 166 167 169 170 172 180 167 172 173 182 214 41 21 19 13 4 5 356 349 348 341 320 321 340 321 315 311 318 306 302 304 289 276 276 277 279
169 167 166 161 162 162 160 163 166 168 171 173 174 175 174 170 170 172 166 100 37 13 356 358 351 341 345 343 335 330 334 324 316 306 307 307 314 316 300 292 282 279 273
170 166 165 163 162 162 162 164 168 169 169 169 171 168 166 171 170 149 139 120 77 33 23 4 350 335 357 346 336 329 332 324 322 324 328 323 319 305 301 304 292 286 274
165 160 157 160 162 163 161 168 168 167 167 168 170 163 160 156 146 129 134 116 96 57 38 8 355 350 356 354 348 336 331 329 328 329 326 322 324 315 325 301 301 290 272
160 163 160 161 164 164 163 167 168 165 162 163 164 151 149 138 124 113 107 89 78 65 56 25 356 350 1 357 341 331 328 329 329 329 331 330 332 330 313 289 289 292 290
162 165 169 165 164 163 163 167 164 161 160 158 156 145 142 126 114 114 111 110 87 53 46 18 357 343 2 16 353 325 325 330 328 337 346 357 7 1 334 320 315 294 277
168 170 171 166 165 165 165 163 162 161 161 159 153 146 141 132 135 145 144 139 121 42 23 11 2 349 26 29 3 333 329 333 335 340 336 325 15 340 305 317 320 311 292
171 168 168 170 169 168 166 165 161 158 160 158 151 145 148 149 152 158 151 165 150 99 47 19 8 22 44 29 1 341 322 337 347 347 338 332 18 345 337 318 263 265 271
169 168 170 169 167 164 161 164 155 155 159 156 149 150 155 156 153 154 157 170 155 104 66 44 21 12 48 29 359 333 301 342 352 355 356 356 2 8 346 323 322 310 297
160 164 169 161 156 157 157 159 160 159 161 160 159 159 161 160 156 156 159 156 150 124 117 93 48 15 43 30 359 329 311 353 359 0 19 9 12 17 348 318 315 315 309
143 150 151 148 149 152 156 162 164 163 163 161 158 155 156 159 154 145 148 142 160 155 193 110 84 28 27 46 10 334 316 349 346 11 44 52 26 12 348 325 322 317 322
127 131 134 139 147 153 160 168 164 163 159 150 149 152 153 156 147 143 147 156 163 130 107 120 142 98 43 74 39 352 333 339 330 347 0 49 41 5 342 325 327 335 319
129 130 131 133 139 152 161 163 158 151 149 147 150 151 156 163 142 150 154 163 179 177 181 196 234 171 123 57 56 7 345 333 331 335 354 36 17 341 327 328 349 330 305
128 131 131 132 138 153 164 160 152 153 153 152 153 154 156 155 153 159 162 177 188 225 229 247 287 344 57 115 125 227 298 314 315 343 14 352 303 290 294 312 307 294 298
136 137 137 139 142 154 160 156 156 158 154 154 155 159 164 165 156 170 174 186 179 226 263 293 304 310 334 4 0 302 267 248 272 307 274 223 234 267 319 305 291 300 328
143 143 145 146 142 146 154 157 155 156 154 154 160 166 167 158 154 151 109 193 96 13 304 306 305 313 322 16 351 320 324 322 329 310 287 296 307 299 308 317 329 327 327
148 151 152 148 143 144 150 155 155 157 161 163 169 174 171 163 173 165 152 115 87 130 185 315 314 332 13 353 313 305 311 309 301 291 289 299 305 311 321 325 320 322 331